Theta_e
331 335 338 331 331 333 333 332 333 331 330 329 328 329 329 328 328 329 329 330 329 331 331 329 327 328 327 313 330 336 340 340 340 338 334 334 330 332 332 331 330 330 329
337 337 332 332 335 335 334 333 331 331 331 329 328 327 326 326 326 327 329 328 330 331 330 329 327 327 323 312 328 335 339 340 341 339 336 335 333 333 332 331 330 330 331
338 335 331 334 334 334 334 331 331 330 330 328 328 327 326 326 326 326 327 327 330 330 329 327 326 325 317 312 327 334 339 336 340 339 337 334 334 333 331 331 331 333 334
335 332 330 332 334 334 331 331 332 330 328 328 328 327 327 326 327 327 327 329 329 329 328 328 318 317 316 313 323 332 338 336 340 337 335 335 333 333 331 331 334 329 330
332 331 332 329 332 332 333 332 331 329 328 327 327 327 327 328 328 325 327 327 328 328 327 328 329 316 318 313 318 331 334 339 338 337 335 334 333 332 331 334 328 330 316
332 334 333 332 332 332 332 331 329 328 328 325 326 327 326 325 325 325 326 326 326 326 328 327 329 328 319 315 315 328 334 338 337 337 335 333 333 332 331 331 328 310 309
333 334 333 334 332 331 332 330 329 329 327 325 327 328 325 324 325 324 326 324 325 326 326 327 329 331 319 316 319 326 334 337 338 336 335 333 331 330 330 326 318 316 324
333 334 332 330 331 331 329 329 329 328 326 326 326 325 324 324 324 324 325 328 325 325 328 328 330 330 325 318 324 329 335 335 337 337 332 331 330 328 328 325 318 316 320
334 334 331 329 330 328 328 328 327 326 324 324 323 321 324 324 324 325 326 328 327 326 328 330 329 330 325 325 327 332 335 335 337 333 331 331 329 329 328 314 310 318 323
334 333 330 328 328 328 328 326 326 326 324 324 324 324 324 326 326 324 327 327 327 325 328 327 330 326 324 325 328 334 335 336 336 333 332 331 330 328 324 309 315 323 319
332 330 331 328 327 326 326 326 326 326 325 325 324 325 324 324 324 326 325 326 327 324 325 328 326 324 327 328 331 333 336 335 335 334 332 332 329 328 309 312 320 316 309
333 330 329 327 326 325 326 325 325 325 325 325 325 326 325 324 324 322 326 326 326 323 328 329 325 327 329 329 330 334 334 331 333 332 331 330 327 311 310 317 321 312 308
329 328 327 327 326 325 325 325 325 325 326 326 326 326 326 324 327 326 326 325 323 326 326 325 327 327 329 327 328 331 330 329 323 328 330 327 314 310 321 324 319 310 313
328 327 327 326 325 325 325 326 326 327 326 326 326 326 326 326 326 328 327 325 326 327 327 326 329 330 327 326 325 327 328 326 328 330 325 312 310 320 324 315 314 318 309
328 327 328 326 327 326 327 327 327 326 325 325 326 326 326 326 327 326 325 327 327 328 327 329 330 330 327 327 327 327 327 329 331 327 324 317 322 324 320 311 314 313 310
330 327 326 326 327 326 327 327 328 326 324 325 325 325 325 325 326 325 326 325 327 326 326 327 328 330 330 330 328 330 328 327 323 322 322 324 323 316 313 312 312 313 309
330 326 326 327 326 325 327 326 325 325 323 323 324 324 324 325 327 325 325 324 327 326 325 327 328 330 330 329 327 327 325 322 323 324 324 322 316 312 312 312 311 310 314
327 328 329 328 328 328 327 326 326 327 327 326 325 327 324 327 327 328 329 328 326 328 327 328 329 329 329 328 326 323 324 324 324 324 323 322 315 312 313 315 315 314 313
329 328 330 329 328 328 326 328 329 327 326 326 326 326 327 326 328 328 328 328 328 328 327 327 328 328 324 323 323 324 324 323 323 322 322 321 317 314 312 313 313 312 313
328 328 329 328 327 328 327 327 327 328 328 326 327 327 327 327 327 326 326 327 327 327 326 328 325 323 323 324 324 323 323 323 322 322 322 317 314 313 312 312 312 314 316
328 328 329 329 326 330 328 326 328 329 329 329 329 327 326 327 327 327 326 325 326 326 325 324 324 323 323 324 324 323 323 322 321 321 319 313 314 313 312 312 314 318 319
328 329 329 326 324 327 326 329 330 329 330 330 329 328 327 327 327 327 326 326 327 326 324 323 323 324 324 324 323 324 323 322 319 315 314 314 314 312 312 314 319 318 313
329 328 328 326 327 326 328 329 330 330 330 330 329 328 327 329 327 327 328 327 326 326 325 323 323 325 323 323 323 323 323 323 321 316 315 313 313 312 316 318 318 313 311
328 328 328 326 325 326 329 329 329 330 329 329 329 328 328 328 328 328 327 326 325 325 323 323 324 324 324 324 324 324 323 319 316 313 313 312 316 317 318 317 314 312 307
328 328 328 325 324 326 328 329 329 329 329 329 328 328 328 327 328 328 327 325 325 324 323 323 324 324 324 324 324 321 317 314 313 313 315 316 318 318 318 316 312 312 303
329 328 328 326 325 324 328 329 329 328 329 329 328 328 327 327 327 328 327 326 326 324 323 323 324 324 323 322 318 316 315 313 312 317 317 319 318 317 315 312 312 311 303
Wind_Speed
23 19 20 20 18 16 15 10 10 15 14 14 12 14 15 16 14 16 18 13 18 23 22 19 16 17 16 20 20 20 21 22 22 23 26 23 22 20 19 18 20 18 16
19 18 20 17 16 16 15 19 19 19 20 19 16 16 17 19 17 17 15 17 15 18 19 16 17 16 17 20 21 20 21 21 24 27 24 25 21 17 16 20 21 20 18
17 19 20 20 21 21 20 19 21 24 22 18 20 13 13 13 20 21 18 18 17 15 15 18 18 18 17 21 23 20 21 22 23 25 26 23 20 18 19 20 19 23 18
20 21 20 22 21 20 21 22 21 20 20 18 18 18 15 16 16 20 23 19 15 13 8 9 11 15 16 21 23 20 22 23 22 27 28 22 20 19 18 19 24 15 13
20 20 19 19 19 20 22 22 21 20 18 17 15 18 15 13 16 18 22 24 18 16 13 10 10 13 16 20 22 21 22 23 24 27 27 24 18 18 22 25 20 14 13
18 18 16 14 18 21 21 22 21 18 16 16 16 17 17 16 16 17 18 21 24 22 20 13 13 12 18 21 22 22 22 23 21 30 30 23 20 22 26 24 19 19 18
17 15 14 19 22 22 22 20 16 15 16 15 13 13 14 14 15 16 16 15 18 17 23 18 13 15 17 20 20 22 23 23 25 32 25 25 24 24 25 25 20 15 13
19 18 19 21 21 23 19 16 15 14 13 13 13 12 6 9 16 19 20 17 13 14 14 18 14 13 18 20 21 23 25 25 28 32 27 27 25 24 26 23 20 19 17
20 18 17 19 19 18 13 13 12 11 11 12 14 11 4 6 9 19 21 17 18 18 18 19 18 17 17 20 21 23 27 28 31 30 28 27 26 29 27 24 22 19 17
17 19 17 14 14 14 11 8 8 7 10 12 14 15 15 2 2 8 18 14 19 17 18 20 17 13 14 16 22 26 28 31 33 27 30 30 30 33 25 27 22 22 18
17 16 15 13 8 6 7 7 7 8 12 13 14 12 12 12 10 7 16 20 15 14 18 18 14 14 16 19 22 27 33 32 34 30 29 30 32 31 31 27 23 17 12
13 14 12 7 4 5 6 7 9 9 8 8 9 9 11 18 13 14 13 18 22 15 13 13 13 14 13 16 22 25 29 19 31 23 31 37 35 33 32 28 22 15 14
9 8 7 6 4 4 5 5 7 6 6 5 7 7 11 18 14 13 13 13 20 17 13 13 14 11 13 16 18 19 22 34 17 23 43 39 34 33 28 25 15 15 14
4 5 6 4 3 3 3 4 5 4 4 5 6 8 7 9 12 11 16 20 20 15 16 17 15 14 16 15 17 21 25 25 32 48 41 40 35 31 24 21 15 14 11
6 6 4 4 5 4 5 4 3 5 3 2 3 7 9 9 5 10 16 19 21 21 18 17 16 17 23 20 18 20 23 35 45 45 36 37 35 25 25 20 17 14 12
8 2 4 5 5 6 5 4 5 4 4 4 4 5 9 9 8 8 12 14 19 26 18 21 18 19 21 16 18 27 43 43 37 36 37 33 26 25 22 18 15 14 13
5 4 4 4 4 3 2 3 4 3 3 4 3 5 7 6 6 7 9 24 20 25 26 21 22 19 22 27 32 29 36 38 39 35 30 30 26 22 21 19 17 13 10
9 6 9 5 4 3 1 3 4 2 0 3 4 2 2 6 7 10 17 22 22 25 23 30 31 27 30 26 38 40 42 39 35 29 28 26 26 21 17 15 13 15 10
11 8 6 4 3 1 1 3 3 1 5 5 5 5 11 11 13 16 18 21 19 24 27 33 33 33 42 43 47 44 41 40 36 30 23 21 23 20 17 15 12 10 7
10 9 8 5 4 3 5 5 5 7 5 4 4 7 9 11 13 18 15 13 16 22 30 35 40 43 44 44 48 43 39 33 31 27 23 24 21 19 15 13 11 8 6
10 9 7 5 5 6 7 5 8 5 2 4 8 10 9 12 13 12 15 18 18 25 32 37 46 47 47 48 45 40 37 32 27 24 24 25 21 18 14 12 9 7 6
11 9 4 3 5 2 6 7 8 7 4 5 7 10 9 7 12 13 14 14 19 33 47 45 46 50 48 46 41 36 34 31 28 25 26 23 18 14 12 10 10 8 5
11 4 4 5 6 6 10 10 10 8 5 6 8 9 11 12 16 17 15 16 33 32 35 41 51 48 43 40 35 32 31 28 30 30 23 20 15 13 13 11 9 6 5
13 10 6 7 10 11 11 10 9 9 8 10 9 11 11 16 16 19 19 33 38 33 35 44 40 41 34 35 31 26 30 30 26 25 20 19 17 13 11 11 10 7 6
12 11 9 11 12 13 11 11 9 10 13 12 10 11 13 15 16 18 24 33 39 35 33 33 29 29 26 25 26 31 28 27 27 22 20 9 14 12 11 12 10 8 8
14 14 12 11 10 10 10 9 10 11 13 13 12 12 12 15 17 18 23 30 37 38 31 33 30 29 30 26 27 22 23 22 24 19 17 11 13 11 11 14 13 11 10
Wind_Direction
241 243 241 251 254 251 252 253 268 264 260 263 251 238 254 255 245 252 243 255 239 228 228 239 254 263 252 219 213 209 205 206 216 209 198 209 204 213 202 194 190 185 178
234 246 249 249 250 254 249 262 255 249 259 266 249 239 244 239 242 247 236 246 221 216 231 241 256 261 237 217 212 208 206 205 205 206 209 208 202 201 208 196 195 187 185
233 248 246 237 247 257 261 266 254 255 260 262 247 251 235 235 240 239 238 230 231 227 251 253 260 247 224 214 208 206 204 204 205 212 201 196 199 191 184 179 178 175 161
239 254 254 245 246 256 265 268 266 262 264 259 240 239 241 235 244 237 238 223 228 217 227 239 239 215 218 213 207 205 203 203 204 202 192 196 191 193 188 181 172 160 163
251 261 264 254 252 257 261 268 267 264 260 257 246 228 238 238 240 232 229 222 225 229 233 239 240 216 210 211 206 205 205 201 201 201 194 197 197 188 186 170 159 161 159
254 258 267 259 268 267 269 269 268 261 258 256 241 234 239 243 246 234 224 220 231 232 226 221 223 226 213 204 207 204 203 200 193 197 194 191 196 189 187 183 167 154 155
247 262 264 265 272 276 278 267 254 260 255 241 236 233 242 247 241 223 211 209 205 215 229 229 242 225 215 203 205 204 200 195 194 189 195 190 182 184 179 171 166 172 172
243 252 260 273 272 276 275 267 271 266 248 228 228 234 259 257 232 207 200 204 213 210 212 223 226 222 213 206 201 203 196 194 191 192 190 182 184 184 177 167 168 161 157
241 253 268 272 277 281 276 264 259 254 234 225 228 234 217 239 238 216 206 208 221 219 211 223 226 223 217 206 201 198 190 191 192 190 183 184 191 182 175 162 159 158 150
246 259 278 282 280 276 261 240 231 245 235 232 240 239 223 276 193 205 208 216 218 216 221 216 221 229 215 208 201 193 192 192 189 188 181 190 184 176 162 161 164 157 166
252 280 280 285 273 247 232 243 253 248 240 245 244 239 230 229 287 224 197 210 207 207 208 216 212 205 206 209 194 190 196 194 194 190 188 190 177 166 162 160 161 169 147
266 268 264 252 251 243 239 244 251 244 238 232 226 219 210 209 225 204 193 205 217 213 199 194 198 208 195 186 189 196 196 199 167 195 183 172 165 158 155 161 160 160 160
263 244 224 226 250 253 247 227 210 206 190 209 217 221 220 212 235 226 208 201 186 178 168 176 199 198 176 170 183 179 172 162 195 181 168 161 151 156 162 165 166 158 158
268 182 193 209 222 186 154 166 175 185 210 196 206 214 210 215 228 203 195 190 168 161 165 168 190 190 163 160 155 169 177 187 182 165 157 144 156 157 158 142 147 152 143
147 162 178 193 176 164 168 185 191 210 187 242 223 200 190 204 189 154 172 179 185 161 158 153 159 168 161 166 168 175 180 175 175 167 151 150 160 158 141 141 151 152 147
147 117 194 161 172 195 208 231 252 248 214 176 154 161 174 204 232 216 202 208 184 179 159 173 160 168 172 161 160 161 152 150 148 143 149 153 151 137 144 147 155 158 163
162 136 125 127 129 147 190 216 207 207 208 203 203 185 179 201 198 207 202 165 177 192 173 166 170 162 159 159 155 159 157 148 149 148 144 141 142 150 151 155 155 174 201
128 114 92 93 107 147 180 194 176 203 48 137 107 155 179 166 190 173 165 170 178 187 173 148 163 166 160 172 161 142 145 147 149 149 147 150 154 159 168 172 167 164 168
152 145 140 171 206 233 188 182 159 117 120 148 163 120 152 141 163 155 171 175 172 177 165 152 158 161 152 146 149 150 148 142 143 149 151 162 153 153 155 163 173 176 184
155 161 180 223 248 239 166 152 132 122 151 134 146 147 135 147 145 144 138 143 147 156 159 160 153 150 154 153 152 145 139 145 149 156 159 154 152 164 172 172 175 184 197
180 182 208 238 243 133 133 123 122 126 76 107 125 155 160 161 171 181 178 174 174 166 163 148 147 146 145 140 143 148 146 148 151 157 154 153 167 173 176 178 186 189 187
191 195 220 196 138 117 129 136 142 136 151 135 122 129 128 142 162 160 161 177 185 170 154 143 141 145 146 149 154 158 158 156 151 159 160 166 174 177 181 186 186 180 191
183 190 171 165 124 131 117 125 115 112 109 126 136 139 126 125 140 145 150 158 168 167 163 162 154 153 155 159 162 161 162 165 161 161 172 163 165 188 188 186 185 195 217
196 179 175 134 133 127 119 111 116 128 122 112 117 131 128 130 138 144 144 162 154 159 163 160 159 157 155 161 167 165 168 164 156 160 174 168 171 185 193 195 199 212 234
178 172 152 143 135 129 126 123 121 131 139 128 125 133 139 136 150 151 151 163 155 155 157 156 153 161 165 166 168 164 158 163 162 166 175 196 181 191 203 201 211 225 235
172 174 165 163 154 140 136 137 125 133 140 134 128 126 128 134 152 168 163 160 161 158 156 156 152 150 157 156 160 163 164 169 166 167 184 189 194 192 203 211 215 226 230